www.pogodaiklimat.ru
ПОГОДА в Пиларе

Архив погоды в Пиларе (Аргентина)

Время
(UTC), дата
10 6.04
11 6.04
12 6.04
13 6.04
14 6.04
15 6.04
16 6.04
17 6.04
18 6.04
19 6.04
20 6.04
21 6.04
22 6.04
23 6.04
00 7.04
01 7.04
02 7.04
03 7.04
04 7.04
05 7.04
06 7.04
07 7.04
08 7.04
09 7.04
10 7.04
11 7.04
12 7.04
13 7.04
14 7.04
15 7.04
16 7.04
17 7.04
18 7.04
19 7.04
20 7.04
21 7.04
22 7.04
23 7.04
00 8.04
01 8.04
02 8.04
03 8.04
04 8.04
05 8.04
06 8.04
07 8.04
08 8.04
09 8.04
10 8.04
11 8.04
12 8.04
13 8.04
14 8.04
15 8.04
16 8.04
17 8.04
18 8.04
19 8.04
20 8.04
21 8.04
22 8.04
23 8.04
00 9.04
01 9.04
02 9.04
03 9.04
04 9.04
05 9.04
06 9.04
07 9.04
08 9.04
09 9.04
10 9.04
11 9.04
12 9.04
13 9.04
14 9.04
15 9.04
16 9.04
17 9.04
18 9.04
19 9.04
20 9.04
21 9.04
22 9.04
23 9.04
00 10.04
01 10.04
02 10.04
03 10.04
04 10.04
05 10.04
06 10.04
07 10.04
08 10.04
09 10.04
10 10.04
11 10.04
12 10.04
13 10.04
14 10.04
15 10.04
16 10.04
17 10.04
18 10.04
19 10.04
20 10.04
21 10.04
22 10.04
23 10.04
00 11.04
01 11.04
02 11.04
03 11.04
04 11.04
05 11.04
06 11.04
07 11.04
08 11.04
09 11.04
10 11.04
11 11.04
12 11.04
13 11.04
14 11.04
15 11.04
16 11.04
17 11.04
18 11.04
19 11.04
20 11.04
21 11.04
22 11.04
23 11.04
00 12.04
01 12.04
02 12.04
03 12.04
04 12.04
05 12.04
06 12.04
07 12.04
08 12.04
09 12.04
11 12.04
12 12.04
13 12.04
14 12.04
15 12.04
16 12.04
17 12.04
18 12.04
19 12.04
20 12.04
21 12.04
22 12.04
23 12.04
00 13.04
01 13.04
02 13.04
03 13.04
04 13.04
05 13.04
06 13.04
07 13.04
08 13.04
Ветер
(напр.,м/с)
Видим. Явления Облачность Т
(С)
Тd
(С)
f
(%)
Тe
(С)
Тes
(С)
Комфортность P
(гПа)
Po
(гПа)
Тmin
(С)
Tmax
(С)
R
(мм)
R24
(мм)
S
(см)
СЗ 1 10 км в посл. час дождь 10/10 450 м
[Sc]
+17.9 +16.4 91 +19 +19 1013.4 974.6
СЗ 2 1500 м слаб. дождь 10/5 240 м
[St As op]
+17.8 +17.3 97 +18 +18 1014.7 975.8
В 2 2000 м слаб. дождь 10/6 750 м
[St As op]
+17.7 +17.4 98 +18 +18 1014.2 975.3 +17.7 +23.3 4
В 2 2000 м слаб. дождь 10/6 450 м
[St As op]
+17.4 +17.1 98 +18 +18 1015.0 976.0
С 4 3000 м слаб. дождь 10/8 750 м
[St As op]
+18.5 +18.0 97 +19 +19 1013.9 975.0
СВ 4 2000 м слаб. дождь 10/8 450 м
[St As op]
+18.2 +17.7 97 +19 +19 1013.6 974.6
С 3 2000 м слаб. дождь 10/8 750 м
[St As op]
+17.2 +17.0 99 +17 +17 1014.6 975.6
В 2 1500 м слаб. дождь 10/9 750 м
[St As op]
+17.8 +17.5 98 +19 +19 1014.2 975.0
штиль 0 1500 м слаб. дождь 10/9 450 м
[St As op]
+16.8 +16.5 98 +17 +17 1014.4 975.2 24
штиль 0 10 км в посл. час гроза {дождь} 10/10 450 м
[Frnb]
+15.8 +15.5 98 +16 +16 1015.1 975.8
штиль 0 10 км {гроза, дождь} 10/10 450 м
[Frnb]
+15.6 +14.6 94 +15 +15 1015.3 975.9
ЮВ 6 10 км {гроза} 10/10 450 м
[Frnb]
+15.0 +13.9 93 +13 +13 1015.3 975.8
С 2 10 км 10/10 900 м
[St]
+15.0 +13.9 93 +15 +15 1015.7 976.2
З 2 8000 м слаб. морось 10/10 750 м
[St]
+15.0 +14.5 97 +15 +15 1017.3 977.7
ЮЗ 3 6000 м слаб. дождь {гроза} 10/8 210 м
[St As op]
+15.0 +14.5 97 +14 +14 1015.4 975.8 +15.0 +18.5 10
ЮЗ 3 10 км в посл. час дождь 10/8 450 м
[St As op]
+15.0 +14.5 97 +14 +14 1017.0 977.4
штиль 0 10 км {дождь} 10/10 210 м
[St]
+15.0 +14.8 99 +15 +15 1016.8 977.3
С 2 10 км {дождь} 10/10 360 м
[St]
+14.2 +13.8 97 +14 +14 1016.5 976.9
СЗ 1 10 км 10/4 450 м
[St Ac As]
+14.0 +13.3 96 +14 +14 1016.0 976.4
СВ 2 10 км 8/3 500 м
[St Ac As]
+13.6 +12.5 93 +13 +13 1015.1 976.2
В 2 10 км {дождь} ясно +14.0 +13.1 94 +14 +14 1016.0 976.4 0.0
штиль 0 10 км ясно +14.0 +13.3 96 +14 +14 1015.6 975.8
штиль 0 10 км ясно +13.2 +11.7 91 +13 +13 1015.1 975.4
СЗ 1 8000 м дымка 10/10 240 м
[St]
+14.2 +13.8 97 +14 +14 1015.7 976.0
штиль 0 4000 м слаб. морось туман 10/10 120 м
[St]
+14.2 +14.2 100 +14 +14 1016.2 976.4
С 3 4000 м слаб. морось туман 10/10 150 м
[St]
+15.0 +15.0 100 +14 +14 1016.4 976.6
С 2 3000 м слаб. морось 10/10 240 м
[St]
+15.1 +15.1 100 +15 +15 1017.4 977.7 +13.2 +15.1 0.6
С 3 5000 м в посл. час морось туман 10/10 300 м
[St]
+15.6 +15.1 97 +15 +15 1017.8 978.1
СЗ 2 6000 м дымка {морось} 10/10 360 м
[St]
+16.2 +15.7 97 +16 +16 1018.0 978.2
С 2 10 км {морось} 10/10 450 м
[St]
+16.7 +15.7 94 +17 +17 1017.9 978.2
С 3 10 км 10/10 450 м
[St]
+17.1 +15.8 92 +17 +17 1017.2 977.4
С 3 10 км 10/10 540 м
[St]
+17.6 +15.8 89 +18 +18 1016.5 976.9
С 3 10 км {морось} 10/10 600 м
[Sc]
+18.5 +16.4 88 +20 +20 1015.9 976.4 0.0
С 3 10 км 9/9 600 м
[Sc]
+19.1 +15.9 82 +21 +21 комфорт 1015.4 975.8
С 3 10 км 4/4 600 м
[Sc]
+19.4 +16.3 82 +22 +23 комфорт 1015.3 975.8
С 3 10 км ясно +19.4 +16.1 81 +22 +22 комфорт 1015.0 975.6
С 2 10 км ясно +18.0 +15.8 87 +19 +19 1015.1 975.6
С 3 10 км ясно +16.6 +15.4 93 +16 +16 1015.5 975.8
СЗ 3 10 км ясно +15.9 +15.0 94 +16 +16 1015.9 976.2 +15.0 +19.8
СЗ 3 10 км ясно +15.6 +14.7 94 +15 +15 1016.1 976.5
З 2 10 км ясно +15.3 +14.6 96 +15 +15 1016.3 976.6
З 1 10 км ясно +14.8 +14.3 97 +15 +15 1016.1 976.5
З 2 10 км ясно +14.8 +14.1 96 +14 +14 1015.6 976.0
СЗ 4 10 км ясно +16.2 +13.7 85 +16 +16 1014.9 975.4
С 3 10 км ясно +15.6 +13.5 87 +15 +15 1014.0 974.6
СЗ 3 10 км ясно +14.5 +12.9 90 +14 +14 1013.3 973.8
С 3 10 км ясно +14.4 +12.6 89 +13 +13 1012.8 973.4
С 3 10 км ясно +14.0 +12.5 91 +13 +13 1012.6 973.3
С 3 10 км ясно +13.6 +12.5 93 +13 +13 1012.8 973.3
С 3 10 км ясно +13.4 +12.7 96 +12 +12 1012.9 973.3
С 4 10 км ясно +16.3 +14.4 89 +16 +17 1012.8 973.4 +12.9 +16.9 0.0
С 6 10 км 1/1 600 м
[Cu hum]
+19.0 +15.3 79 +20 +21 1013.1 973.8
С 6 10 км 1/1 600 м
[Cu hum]
+20.5 +15.5 73 +23 +26 комфорт 1012.7 973.4
СВ 6 10 км 1/1 600 м
[Cu hum]
+21.6 +15.5 68 +25 +29 комфорт 1012.3 973.2
С 6 10 км 1/0
[Ci fib]
+21.5 +14.8 66 +25 +29 комфорт 1011.4 972.2
С 6 10 км ясно +22.1 +14.9 64 +26 +30 душно 1010.5 971.6
С 5 10 км ясно +22.6 +15.1 63 +26 +32 жарко 1009.5 970.6
С 6 10 км ясно +22.8 +15.0 61 +27 +30 душно 1009.0 970.1
С 4 10 км ясно +22.6 +16.1 67 +27 +29 душно 1009.0 970.0
С 4 10 км ясно +21.5 +15.4 68 +25 +25 комфорт 1008.6 969.6
С 3 10 км ясно +19.9 +15.6 76 +23 +23 комфорт 1009.0 969.8
С 2 10 км ясно +18.2 +15.5 84 +19 +19 1010.0 970.6
С 1 10 км ясно +17.2 +15.5 90 +18 +18 1010.9 971.6 +16.3 +23.2
С 1 10 км ясно +16.4 +15.2 93 +18 +18 1011.3 972.1
С 2 5000 м дымка ясно +15.7 +14.8 94 +16 +16 1011.5 972.4
С 2 1500 м дымка ясно +15.2 +14.7 97 +15 +15 1011.8 972.6
В 1 500 м туман, небо видно 9/9 300 м
[St]
+15.0 +14.5 97 +16 +16 1012.3 973.2
штиль 0 500 м туман, небо видно 9/9 240 м
[St]
+15.1 +14.9 99 +15 +15 1012.6 973.4
Ю 1 <100 м туман, небо не видно ?/? +14.2 +14.0 99 +14 +14 1012.8 973.7
ЮЗ 1 <100 м туман, небо не видно ?/? +14.0 +14.0 100 +15 +15 1012.7 973.6
СВ 1 100 м туман, небо не видно ?/? +14.2 +14.2 100 +14 +14 1012.3 973.2
Ю 1 <100 м туман, небо не видно ?/? +14.1 +14.1 100 +14 +14 1013.7 974.5
штиль 0 <100 м туман, небо не видно ?/? +14.0 +14.0 100 +13 +13 1014.4 975.0
ЮЗ 1 300 м туман, небо видно 1/1 120 м
[St]
+13.5 +13.1 97 +14 +14 1014.9 975.4
ЮЗ 3 6000 м в посл. час туман туман 4/4 120 м
[St]
+14.7 +14.4 98 +14 +15 1016.0 976.4 +12.6 +17.2
З 1 10 км {туман} ясно +17.3 +16.0 92 +18 +24 1016.4 976.9
Ю 3 10 км ясно +21.7 +15.0 66 +25 +32 комфорт 1016.1 976.9
Ю 3 10 км 1/1 750 м
[Sc]
+22.5 +12.0 51 +25 +33 комфорт 1016.0 976.8
Ю 3 10 км 4/4 750 м
[Sc]
+23.8 +12.8 50 +26 +32 жарко 1015.6 976.5
ЮВ 3 10 км 4/4 750 м
[Cu hum]
+23.3 +12.4 50 +26 +32 жарко 1015.1 976.0
ЮВ 3 10 км 4/4 750 м
[Cu hum]
+22.9 +13.6 56 +26 +31 жарко 1014.4 975.2
ЮВ 4 10 км 8/8 900 м
[Sc]
+21.0 +14.4 66 +24 +25 комфорт 1014.5 975.2
ЮВ 6 10 км 10/10 900 м
[Sc]
+19.5 +15.5 78 +21 +21 комфорт 1014.6 975.2
ЮВ 4 10 км 6/6 900 м
[Cu Sc]
+19.5 +15.8 79 +21 +22 комфорт 1014.9 975.4
Ю 3 10 км 10/6 900 м
[Sc Ac As]
+19.0 +17.0 88 +21 +21 комфорт 1015.4 975.8
Ю 3 10 км 10/8 300 м
[St Ac As]
+18.7 +16.6 88 +20 +20 1015.8 976.2
Ю 3 10 км 10/8 300 м
[St Ac As]
+19.0 +16.4 85 +21 +21 комфорт 1016.2 976.6 +14.5 +24.1
Ю 2 10 км 10/8 450 м
[St Ac As]
+19.2 +16.2 83 +22 +22 комфорт 1016.5 977.2
Ю 4 10 км 10/10 360 м
[St]
+19.5 +15.7 79 +22 +22 комфорт 1016.7 977.7
Ю 4 10 км 9/4 600 м
[Sc Ac As]
+18.3 +14.2 77 +19 +19 1017.0 978.0
Ю 3 10 км 10/4 600 м
[Sc Ac As]
+17.4 +13.9 80 +17 +17 1017.5 978.5
Ю 3 10 км 10/4 600 м
[Sc Ac As]
+17.0 +13.9 82 +17 +17 1017.4 978.2
Ю 3 10 км 10/4 600 м
[Sc Ac As]
+16.8 +14.0 84 +17 +17 1017.1 978.0
Ю 3 10 км 10/10 300 м
[St]
+16.7 +14.1 85 +17 +17 1016.8 977.6
Ю 4 10 км 10/10 240 м
[St]
+16.4 +14.3 87 +16 +16 1016.7 977.4
Ю 4 10 км 10/10 240 м
[St]
+16.1 +14.2 88 +15 +15 1017.2 977.8
Ю 4 10 км 10/10 240 м
[St]
+15.8 +14.2 90 +15 +15 1017.9 978.4
Ю 4 10 км 10/10 240 м
[St]
+15.5 +14.3 93 +15 +15 1018.4 978.9
Ю 3 10 км 10/10 240 м
[St]
+15.3 +14.3 94 +15 +15 1019.6 980.0 +14.9 +19.6
Ю 3 8000 м слаб. морось 10/10 240 м
[St]
+15.0 +14.5 97 +14 +14 1020.5 980.9
Ю 4 1200 м дождь {морось} 10/10 150 м
[St]
+14.6 +14.1 97 +13 +13 1020.6 981.0
Ю 4 8000 м слаб. морось {дождь} 10/10 150 м
[St]
+14.1 +13.6 97 +13 +13 1020.7 981.0
Ю 4 2000 м слаб. морось 10/10 120 м
[St]
+14.1 +13.2 94 +13 +13 1020.6 980.8
Ю 5 2000 м морось 10/10 120 м
[St]
+13.9 +13.2 96 +12 +12 1020.7 980.9
Ю 5 600 м дождь {морось} 10/10 120 м
[St]
+12.2 +11.8 97 +10 +10 1020.9 980.9 0.7
Ю 5 600 м дождь 10/10 120 м
[St]
+11.2 +10.8 97 +8 +8 1021.7 981.6
Ю 5 800 м дождь 10/10 120 м
[St]
+10.9 +10.5 97 +8 +8 1022.2 982.1
Ю 5 800 м морось {дождь} 10/10 120 м
[St]
+10.5 +9.9 96 +8 +8 1022.6 982.4
Ю 3 500 м дождь {морось} 10/10 60 м
[St]
+10.0 +9.4 96 +8 +8 1023.8 983.4
Ю 4 800 м морось {дождь} 10/10 60 м
[St]
+9.8 +9.4 97 +7 +7 1024.8 984.4
ЮЗ 4 5000 м слаб. морось {дождь} 10/10 60 м
[St]
+9.7 +9.3 97 +7 +7 1025.1 984.6 +9.7 +15.4 6
ЮЗ 3 8000 м слаб. морось 10/10 60 м
[St]
+9.7 +9.3 97 +8 +8 1025.3 984.9
ЮЗ 3 10 км в посл. час морось 10/10 120 м
[St]
+9.5 +9.1 97 +7 +7 1026.1 985.6
Ю 1 10 км {морось} 10/10 90 м
[St]
+9.6 +9.0 96 +9 +9 1025.7 985.4
ЮЗ 3 10 км 10/10 90 м
[St]
+9.3 +8.7 96 +7 +7 1025.6 985.0
Ю 3 3000 м слаб. морось 10/10 90 м
[St]
+9.4 +9.2 99 +7 +7 1025.8 985.3
Ю 4 8000 м слаб. морось 10/10 90 м
[St]
+9.4 +9.2 99 +6 +6 1025.4 984.8 0.0
ЮЗ 2 8000 м слаб. морось 10/10 90 м
[St]
+9.5 +9.1 97 +8 +8 1024.8 984.1
ЮЗ 3 8000 м дождь {морось} 10/10 90 м
[St]
+9.7 +9.3 97 +7 +7 1024.3 983.6
ЮЗ 2 10 км слаб. морось {дождь} 10/10 100 м
[St]
+9.7 +8.9 95 +8 +8 1024.2 983.4
Ю 1 10 км в посл. час морось 10/10 150 м
[St]
+9.9 +9.5 97 +9 +9 1023.7 983.0
Ю 2 10 км {морось} 10/10 150 м
[St]
+10.2 +9.2 94 +9 +9 1024.9 984.2
Ю 3 10 км {дождь, морось} 10/10 300 м
[St]
+10.3 +9.3 94 +8 +8 1025.9 985.0 +9.3 +10.3 0.3
ЮВ 2 6000 м дождь {морось} 10/10 300 м
[St]
+10.8 +9.4 91 +9 +9 1025.9 985.2
Ю 2 10 км в посл. час дождь {морось} 10/10 360 м
[St]
+11.8 +9.9 88 +11 +11 1025.5 984.8
Ю 2 10 км {дождь} 10/10 600 м
[Sc]
+12.3 +9.6 84 +12 +12 1024.9 984.2
Ю 2 10 км 10/10 600 м
[Sc]
+12.7 +9.6 81 +12 +12 1024.3 983.7
Ю 1 10 км 10/10 600 м
[Sc]
+13.2 +9.9 80 +13 +13 1023.6 983.0
Ю 2 10 км {дождь} 10/10 600 м
[Sc]
+13.8 +10.2 79 +14 +14 1022.7 982.2 0.0
Ю 2 10 км 8/5 600 м
[Sc Ac As Ci]
+14.3 +10.5 78 +14 +17 1022.2 981.8
Ю 2 10 км 8/5 600 м
[Sc Ac As]
+15.5 +10.6 73 +15 +16 1021.9 981.6
Ю 2 10 км 8/4 600 м
[Sc Ac As Cs]
+15.2 +10.9 75 +15 +16 1022.1 981.8
ЮЗ 1 10 км 8/4 600 м
[Sc Ac As Cc]
+14.1 +10.7 80 +14 +14 1022.6 982.2
Ю 2 10 км 10/10 450 м
[St]
+13.7 +10.7 82 +13 +13 1022.8 982.4
Ю 2 10 км 10/10 360 м
[Sc]
+13.6 +10.6 82 +13 +13 1022.9 982.5 +10.1 +16.3
ЮЗ 2 10 км 10/10 360 м
[Sc]
+13.5 +10.9 84 +13 +13 1023.3 982.9
Ю 2 10 км 10/10 450 м
[Sc]
+13.5 +10.7 83 +13 +13 1023.7 983.4
Ю 1 6000 м слаб. морось 10/10 300 м
[St]
+13.7 +11.1 84 +14 +14 1023.8 983.4
Ю 1 10 км в посл. час морось 10/10 300 м
[St]
+14.1 +10.9 81 +14 +14 1023.2 983.0
ЮЗ 1 6000 м слаб. морось 10/10 300 м
[St]
+13.9 +11.3 84 +14 +14 1023.0 982.8
ЮЗ 1 2000 м слаб. морось 10/10 240 м
[St]
+13.1 +12.2 94 +13 +13 1023.1 982.9 0.0
Ю 1 3000 м слаб. морось 10/10 240 м
[St]
+13.0 +11.9 93 +13 +13 1022.1 982.0
Ю 2 2000 м слаб. морось 10/10 240 м
[St]
+12.8 +12.1 96 +12 +12 1021.5 981.4
Ю 2 1500 м слаб. морось 10/10 240 м
[St]
+12.7 +12.1 96 +12 +12 1021.6 981.4
Ю 2 800 м слаб. морось 10/10 150 м
[St]
+12.2 +11.8 97 +11 +11 1021.5 981.3
Ю 2 1000 м слаб. морось 10/10 150 м
[St]
+12.0 +11.8 99 +11 +11 1021.4 981.2 +11.6 +14.3 2
Ю 2 1500 м слаб. морось 10/10 150 м
[St]
+12.3 +12.1 99 +11 +11 1021.4 981.2
ЮВ 2 2000 м слаб. дождь {морось} 10/10 450 м
[St As op]
+12.4 +12.0 97 +11 +11 1021.2 981.0
Ю 2 3000 м слаб. дождь {морось} 10/10 450 м
[St As op]
+12.6 +12.2 97 +12 +12 1021.2 981.0
ЮВ 3 3000 м слаб. дождь 10/10 600 м
[St As op]
+12.8 +12.4 97 +11 +11 1020.3 980.2
Ю 2 2500 м слаб. морось {дождь} 10/10 450 м
[St]
+13.4 +12.9 97 +13 +13 1019.2 979.2
Ю 3 2000 м дождь {морось} 10/10 450 м
[St As op]
+13.3 +12.9 97 +12 +12 1018.6 978.6 8
ЮВ 2 2000 м дождь 10/10 450 м
[St As op]
+13.1 +12.7 97 +12 +12 1018.0 978.0
Ю 2 4000 м дождь 10/10 750 м
[St As op]
+13.3 +12.9 97 +12 +12 1017.9 977.8
В 2 3000 м дождь 10/10 600 м
[St As op]
+13.2 +12.8 97 +13 +13 1017.8 977.8
ЮВ 2 2000 м дождь 10/10 600 м
[St As op]
+13.0 +13.0 100 +12 +12 1018.4 978.2
Ю 2 2000 м дождь 10/10 600 м
[St As op]
+13.0 +12.8 99 +12 +12 1018.6 978.5
Ю 2 1000 м дождь {морось} 10/10 210 м
[St]
+13.1 +12.9 99 +12 +12 1019.3 979.0 +12.0 +13.6 8
Ю 3 1000 м дождь 10/10 180 м
[St]
+13.1 +12.9 99 +12 +12 1019.1 979.0
Ю 3 1500 м дождь {морось} 10/10 180 м
[St]
+13.0 +13.0 100 +11 +11 1019.3 979.2
Ю 3 4000 м морось {дождь} 10/10 180 м
[St]
+13.2 +12.8 97 +12 +12 1019.3 979.2
Ю 3 4000 м морось 10/10 150 м
[St]
+13.3 +12.9 97 +12 +12 1019.0 978.9
Ю 3 4000 м морось 10/10 150 м
[St]
+13.2 +12.8 97 +12 +12 1018.5 978.5
Ю 4 4000 м морось {дождь} 10/10 120 м
[St]
+13.3 +12.9 97 +12 +12 1018.3 978.2 4
Ю 3 4000 м морось 10/10 150 м
[St]
+13.3 +12.9 97 +12 +12 1017.5 977.4
Ю 4 4000 м морось 10/10 150 м
[St]
+13.2 +12.8 97 +12 +12 1016.9 976.9
Местоположение метеостанции Пилар (Аргентина): широта -31.66 долгота -63.88 высота над уровнем моря 338 м.
В архиве по умолчанию представлена погода в Пиларе за последнюю неделю. Архивные данные за месяц целиком и за предыдущие месяцы, начиная с января 2011 года, Вы можете получить, выбрав интересующий диапазон дат из раскрывающегося списка и нажав кнопку "Найти!".
*Определитесь, кто Вы:
Внимание! Время в таблицах - всемирное. Для получения местного времени необходимо прибавить поправку, которая равна -3 ч.
Некоторые строки с данными для отдельных станций могут быть выделены курсивом. Это означает, что фактические данные отсутствуют по различным причинам, а приведенные значения являются расчетными модельными данными для данного пункта наблюдений.
Смотрите также архив погоды в соседних городах и на ближайших метеорологических станциях:
Партнеры нашего сайта:      
Пояснения к столбцам:
  • Ветер - указаны скорость ветра в м/с - средняя за 10 мин, порывы в срок и между сроками (в фигурных скобках) и направление, откуда дует ветер: С - северный,
  • СВ - северо-восточный, В - восточный, ЮВ - юго-восточный, Ю - южный, ЮЗ - юго-западный, З - западный, СЗ - северо-западный.
  • Видимость - горизонтальная дальность видимости в метрах или километрах. При видимости от 1 до 10 км при отсутствии осадков обычно наблюдается дымка, при ухудшении видимости до 1 км и менее - туман. В сухую погоду видимость может ухудшаться дымом, пылью или мглою.
  • Явления - указаны атмосферные явления, наблюдавшиеся в срок или в последний час перед сроком; фигурными скобками обозначены явления, наблюдавшиеся между сроками (за 1-3 часа до срока); квадратными скобками обозначены град или гололедные отложения с указанием их диаметра в мм.
  • Облачность - указаны через наклонную черту общая и нижняя облачность в баллах и высота нижней границы облаков в метрах; квадратными скобками обозначены формы облаков: Ci - перистые, Cs - перисто-слоистые, Cc - перисто-кучевые, Ac - высококучевые, As - высокослоистые, Sc - слоисто-кучевые, Ns - слоисто-дождевые, Cu - кучевые, Cb - кучево-дождевые. Подробнее классификацию облаков см. в Атласе облаков (PDF).
  • T - Температура воздуха - температура, измеренная на высоте 2 м над землей.
  • Td - Температура точки росы - температура, при понижении до которой содержащийся в воздухе водяной пар достигнет насыщения.
  • f - Относительная влажность воздуха - влажноcть воздуха, измеренная на высоте 2 м над землей.
  • Te - Эффективная температура - температура, которую ощущает одетый по сезону человек в тени. Характеристика душности погоды. При расчете учитывается влияние влажности воздуха и скорости ветра на теплоощущения человека.
  • Tes - Эффективная температура на солнце - температура, которую ощущает человек, с поправкой на солнечный нагрев. Характеристика знойности погоды. Зависит от высоты солнца над горизонтом, облачности и скорости ветра. Ночью, в пасмурную погоду, а также при ветре 12 м/с и более поправка равна нулю.
  • P - Атмосферное давление - приведенное к уровню моря атмосферное давление.
  • Po - Атмосферное давление - измеренное на уровне метеостанции атмосферное давление.
  • Tmin - Минимальная температура - минимум температуры воздуха на высоте 2 м над землей.
  • Tmax - Максимальная температура - максимум температуры воздуха на высоте 2 м над землей.
  • R - Количество осадков - Количество выпавших осадков за период времени, мм. При наведении курсора мыши на число - период времени, за который выпало указанное количество осадков.
  • R24 - Количество осадков - Количество выпавших осадков за 24 часа, мм.
  • S - Снежный покров - Высота снежного покрова, см. При наведении курсора мыши на число - состояние снежного покрова и степень покрытия местности в баллах.